Flag for Canada Weather past 2 weeks in Thunder Bay, Ontario, Canada

Now
48 °F

Partly sunny.


Feels Like: 45 °F
Forecast: 36 / 48 °F
Wind: 7 mph from East

Location: Thunder Bay

Current Time: Sep 16, 2014 at 9:42:01 PM

Latest Report: Sep 16, 2014 at 9:00 PM


Visibility: 15 mi

Pressure: 30.03 "Hg

Humidity: 82%

Dew point: 43 °F

Location of Thunder BayLocation

Historic Weather in Thunder Bay — Graph

°F

Thunder Bay temperature yesterday

Maximum temperature yesterday: 59 °F (at 4:00 PM)
Minimum temperature yesterday: 34 °F (at 6:00 AM)
Average temperature yesterday: 46 °F

Past Weeks' High & Low Weather Summary

 TemperatureHumidityPressure
High75 °F (Sep 2, 6:00 PM)100% (Sep 2, 12:00 AM)30.43 "Hg (Sep 2, 12:00 AM)
Low34 °F (Sep 11, 5:00 AM)40% (Sep 6, 4:00 PM)29.59 "Hg (Sep 1, 8:00 PM)
Average53 °F82%30.00 "Hg
* Reported Sep 1 8:00 PM — Sep 16 8:00 PM, Thunder Bay, Weather by CustomWeather, © 2014

Note: Actual official high and low records may vary slightly from our data, if they occured in-between our weather recording intervals... More about our weather records

Advertising

Thunder Bay weather history for previous 24 hours

 ConditionsComfort  
Time TempWeatherWind HumidityBarometerVisibility
8:00 PM
Sep 16
50 °FBroken clouds.7 mph82%30.01 "Hg20 mi
7:00 PM54 °FBroken clouds.10 mph77%30.00 "Hg20 mi
6:00 PM63 °FPartly sunny.7 mph56%29.97 "Hg20 mi
5:00 PM63 °FBroken clouds.8 mph59%29.97 "Hg20 mi
4:00 PM59 °FBroken clouds.7 mph68%29.98 "Hg20 mi
3:00 PM59 °FPartly sunny.16 mph63%29.96 "Hg20 mi
2:00 PM61 °FPartly sunny.17 mph59%29.96 "Hg20 mi
1:00 PM55 °FSprinkles. Mostly cloudy.9 mph67%29.95 "Hg20 mi
12:00 PM55 °FPartly sunny.7 mph72%29.95 "Hg20 mi
11:00 AM54 °FBroken clouds.7 mph72%29.95 "Hg20 mi
10:00 AM50 °FPartly sunny.7 mph82%29.96 "Hg20 mi
9:00 AM46 °FPartly sunny.3 mph87%29.98 "Hg20 mi
8:00 AM39 °FPartly cloudy.7 mph100%29.99 "Hg20 mi
7:00 AM39 °FPassing clouds.6 mph100%30.00 "Hg15 mi
6:00 AM37 °FPassing clouds.5 mph100%30.01 "Hg15 mi
5:00 AM37 °FPassing clouds.5 mph100%30.02 "Hg15 mi
4:00 AM37 °FPassing clouds.6 mph100%30.04 "Hg15 mi
3:00 AM36 °FClear.7 mph100%30.05 "Hg15 mi
2:00 AM36 °FClear.6 mph100%30.06 "Hg15 mi
1:00 AM37 °FClear.5 mph93%30.06 "Hg15 mi
12:00 AM39 °FClear.7 mph93%30.06 "Hg15 mi
11:00 PM
Sep 15
41 °FClear.6 mph93%30.07 "Hg15 mi
10:00 PM45 °FClear.7 mph81%30.08 "Hg15 mi
9:00 PM46 °FSunny.5 mph82%30.09 "Hg15 mi
Weather by CustomWeather, © 2014

See weather overviewHow to use our weather pages